Regional Weather Roundup
Issued by NWS

Home | Current Version | Previous Version | Text Only | Print | Product List | Glossary Off
Versions: 1 2 3 4 5 6 7 8 9 10 11 12 13 14 15 16 17 18 19 20 21 22 23 24 25 26 27 28 29 30 31 32 33 34 35 36 37 38 39 40 41 42 43 44 45 46 47 48 49 50

000
ASUS42 KTBW 310410
RWRFL
FLORIDA REGIONAL WEATHER ROUNDUP
NATIONAL WEATHER SERVICE TAMPA BAY RUSKIN FL
1200 AM EDT SUN AUG 31 2014

NOTE: "FAIR" INDICATES FEW OR NO CLOUDS BELOW 12,000 FEET WITH NO
SIGNIFICANT WEATHER AND/OR OBSTRUCTIONS TO VISIBILITY.


FLZ001>010-012>015-112-114-115-310500-
PANHANDLE FLORIDA

CITY           SKY/WX    TMP DP  RH WIND       PRES   REMARKS
PENSACOLA      MOCLDY    80  77  90 S6        30.09S
PENSACOLA NAS  MOCLDY    83  78  85 S6        30.09S
MILTON NAS     CLOUDY    77  74  90 CALM      30.10S
CRESTVIEW      MOCLDY    77  74  90 CALM      30.12S
DUKE FIELD     FAIR      77  77  99 N1        30.11R
VALPARAISO     MOCLDY    83  77  82 CALM      30.10S
MARY ESTHER    CLOUDY    84  74  73 S7        30.09R
TRI COUNTY     FAIR      75  74  96 CALM      30.12S
PANAMA CITY    FAIR      79  76  90 CALM      30.10R
TYNDALL AFB    MOCLDY    80  78  95 CALM      30.12R
APALACHICOLA   MOCLDY    78  76  93 CALM      30.11R

STATION/POSITION SKY/WX   TEMP    WIND        PRES    WAVE   SWELL
                          AIR SEA DIR/SP/G            HT/PER HT/PER
                          (F)     (DEG/KT/KT) (MB)    (FT/S) (FT/S)
30.1N   87.6W              85 85  170/ 10/ 12 1018.7S   3/ 6   2/ 6
28.8N   86.0W              85 86  130/  8/ 10 1019.2    3/ 6   3/ 6
PANAMA CITY BEAC           85 87  170/  7/  8 1019.4F
CAPE SAN BLAS    NOT AVBL
TOWER C                    83     170/  6/  7 1019.8R
28.5N   84.5W              82 86  130/ 14/ 16 1019.8R   3/ 6

$$
FLZ011-016>038-118-127-128-134-139-239-310500-
NORTH FLORIDA

CITY           SKY/WX    TMP DP  RH WIND       PRES   REMARKS
MARIANNA       MOCLDY    77  74  90 CALM      30.11R
TALLAHASSEE      N/A     80  75  84 CALM      30.12R
PERRY          MOCLDY    77  77 100 E7        30.13S
CROSS CITY       N/A     75  72  90 SE5       30.14R
LAKE CITY      RAIN      75  72  88 SE5       30.16R
GAINESVILLE    MOCLDY    73  71  93 SW7       30.16R
MAYPORT NAS    PTCLDY    81  77  88 S6        30.13S
JACKSONVILLE   MOCLDY    78  76  93 S3        30.14R
JAX NAS        MOCLDY    85  75  72 SW7       30.15R
JAX CRAIG      PTCLDY    81  75  82 CALM      30.14R
JAX CECIL      MOCLDY    77  72  83 W5        30.16R
FERNANDINA BEA MOCLDY    82  75  78 S5        30.13S
ST AUGUSTINE   CLEAR     81  76  84 SW6       30.15R

STATION/POSITION SKY/WX   TEMP    WIND        PRES    WAVE   SWELL
                          AIR SEA DIR/SP/G            HT/PER HT/PER
                          (F)     (DEG/KT/KT) (MB)    (FT/S) (FT/S)
SHELL POINT                84     260/  3/  5   N/A
KEATON BEACH               85      CALM  /  1 1020.1R
CEDAR KEY                  75     160/ 27/ 32 1022.2R
FERNANDINA                 83 86  160/  4/  6 1020.0S
30.7N   81.3W                 84                N/A     2/ 8
MAYPORT                    82 85  190/  4/  6   N/A
31.4N   80.9W              83 85  140/ 10/ 10 1020.4S   2/ 8   2/ 8
ST AUGUSTINE               81     210/  5/  6 1021.2R

$$
FLZ040-043>046-052-053-057-058-063-144-310500-
INTERIOR CENTRAL FLORIDA

CITY           SKY/WX    TMP DP  RH WIND       PRES   REMARKS
OCALA          CLOUDY    75  73  94 NW5       30.16R
LEESBURG       CLEAR     80  74  81 CALM      30.16R
SANFORD        MOCLDY    80  75  84 CALM      30.15R
ORLANDO EXEC   CLEAR     80  75  84 SE5       30.15R
ORLANDO INTL   MOCLDY    79  74  84 CALM      30.15R
WINTER HAVEN   CLEAR     80  72  76 VRB3      30.16R
LAKELAND       CLEAR     73  72  94 N3        30.15S
BARTOW         FAIR      77  72  83 NW3       30.16R
OKEECHOBEE       N/A     73  73 100 MISG      30.14

$$
FLZ041-047-054-059-064-141-147-310500-
EAST CENTRAL FLORIDA

CITY           SKY/WX    TMP DP  RH WIND       PRES   REMARKS
DAYTONA BEACH  PTCLDY    78  75  90 CALM      30.15R
DELAND         CLEAR     77  75  94 CALM      30.16S
JFK SPACE CTR  PTCLDY    80  74  82 SE2       30.14R
CAPE CANAVERAL CLEAR     78  73  85 SE6       30.13R
PATRICK AFB    PTCLDY    83  73  72 SE5       30.14R
MELBOURNE      CLEAR     80  73  79 CALM      30.13R
VERO BEACH     MOCLDY    82  75  79 SE5       30.13R
FT PIERCE      CLEAR     83  73  72 SE5       30.13R
STUART         CLEAR     81  72  74 SE3       30.13S

STATION/POSITION SKY/WX   TEMP    WIND        PRES    WAVE   SWELL
                          AIR SEA DIR/SP/G            HT/PER HT/PER
                          (F)     (DEG/KT/KT) (MB)    (FT/S) (FT/S)
28.5N   80.2W              84 83  140/  8/ 12 1020.6R
28.9N   78.5W              81 85  190/ 10/ 14 1021.0F   3/ 8   3/ 8
TRIDENT PIER               82 85  130/  5/  7 1020.0R
28.4N   80.5W                 84                N/A     2/ 8
27.6N   80.2W                 84                N/A     3/ 9

$$
FLZ050-056-061-142-242-148-248-149-249-151-251-155-255-
160-260-310500-
WEST CENTRAL FLORIDA

CITY           SKY/WX    TMP DP  RH WIND       PRES   REMARKS
CRYSTAL RIVER  MOCLDY    77  72  83 CALM      30.15F
INVERNESS      FAIR      73  73 100 CALM      30.16S
BROOKSVILLE    MOCLDY    75  72  90 E5        30.16R
ZEPHYRHILLS    FAIR      72  72 100 CALM      30.16R
CLEARWATER     CLOUDY    79  74  84 CALM      30.14R
TAMPA INTL     MOCLDY    78  72  81 N3        30.15R
TAMPA EXEC     PTCLDY    75  72  88 CALM      30.15R
PLANT CITY     CLEAR     77 N/A N/A CALM      30.16S
MACDILL AFB    PTCLDY    75  75  98 N3        30.14R
ST PETERSBURG  MOCLDY    80  75  84 N6        30.12R
SARASOTA       MOCLDY    78  75  90 CALM      30.12R
VENICE           N/A    N/A N/A N/A MISG        N/A

STATION/POSITION SKY/WX   TEMP    WIND        PRES    WAVE   SWELL
                          AIR SEA DIR/SP/G            HT/PER HT/PER
                          (F)     (DEG/KT/KT) (MB)    (FT/S) (FT/S)
CEDAR KEY                  75     160/ 27/ 32 1022.2R
28.5N   84.5W              82 86  130/ 14/ 16 1019.8R   3/ 6
27.3N   84.3W                 87                N/A     3/ 6
CLEARWATER BEACH           83 88  240/  3/  4 1020.2S
MIDDLE TAMPA BAY           83      70/  3/  4 1020.8R
VENICE                     78 88   50/  4/  5 1020.0R

$$
FLZ066-069-070-075>078-162-262-165-265-310500-
SOUTHWEST FLORIDA AND KEYS

CITY           SKY/WX    TMP DP  RH WIND       PRES   REMARKS
PUNTA GORDA    PTCLDY    78  74  87 NE3       30.14R
FT MYERS       PTCLDY    80  75  84 E3        30.11R
SOUTHWEST INTL PTCLDY    79  74  84 E5        30.12R
NAPLES         CLEAR     82  74  76 E5        30.10R
MARCO ISLAND   CLEAR     81  73  78 NE5       30.10S
MARATHON       PTCLDY    85  75  72 E8G21     30.07R
KEY WEST NAS   PTCLDY    85  74  69 SE15G24   30.07R
KEY WEST INTL  PTCLDY    86  73  65 SE20      30.08R

STATION/POSITION SKY/WX   TEMP    WIND        PRES    WAVE   SWELL
                          AIR SEA DIR/SP/G            HT/PER HT/PER
                          (F)     (DEG/KT/KT) (MB)    (FT/S) (FT/S)
VENICE                     78 88   50/  4/  5 1020.0R
NAPLES                     82      90/  2/  3 1020.0S
DRY TORTUGAS               86     120/ 23/ 25 1017.9R
NW FL BAY                  87     130/ 15/ 18 1018.3R
SAND KEY                   85     130/ 15/ 18 1018.0R
SOMBRERO KEY               86     120/ 19/ 21 1018.9R
LONG KEY                   86 87  120/ 14/ 16 1019.0R
MOLASSES REEF              86 87  110/ 15/ 17 1018.5R

$$
FLZ067-068-071>074-168-172>174-310500-
SOUTHEAST FLORIDA

CITY           SKY/WX    TMP DP  RH WIND       PRES   REMARKS
W PALM BEACH   PTCLDY    84  75  74 SE10      30.11R
FT LAUDER-EXEC PTCLDY    83  78  85 E6        30.10S
FT LAUDERDALE  PTCLDY    86  75  69 E13       30.09F HX  95
POMPANO BEACH  CLEAR     84  74  71 SE9       30.11F
PEMBROKE PINES CLEAR     85  75  72 E9        30.11S
OPA LOCKA      CLEAR     83  75  77 E7        30.10S
MIAMI          PTCLDY    85  75  72 E12       30.10S
WEST KENDALL   CLEAR     85  74  69 SE7       30.10R
HOMESTEAD      PTCLDY    85  76  74 SE6       30.09S

STATION/POSITION SKY/WX   TEMP    WIND        PRES    WAVE   SWELL
                          AIR SEA DIR/SP/G            HT/PER HT/PER
                          (F)     (DEG/KT/KT) (MB)    (FT/S) (FT/S)
PORT EVERGLADES            86     120/  6/ 12 1019.1
VIRGINIA KEY               86 87  110/ 11/ 15   N/A
LAKE WORTH                 85 87  110/ 14/ 17 1019.4S
FOWEY ROCKS                87 87  110/ 17/ 18 1019.3R
SETTLEMENT POINT           83     130/  5/  7 1020.5S

$$




USA.gov is the U.S. government's official web portal to all federal, state and local government web resources and services.